Location: Buch
(49.7331°N, 12.1098°E)
Time: 08:49:24
(UTC+00:00)

Cosmos 1709 Rocket - Pass Details

Date: 12 May 2021
Orbit: 947 x 1002 km, 82.9° (Epoch: 13 June)

Event Time Altitude Azimuth Distance (km) Brightness Sun altitude
Rises 19:40:56 0° 350° (N) 3,639 7.9 -8.0°
Reaches altitude 10° 19:43:26 10° 350° (N) 2,686 7.2 -8.3°
Maximum altitude 19:49:35 87° 261° (W) 957 4.0 -9.1°
Drops below altitude 10° 19:55:41 10° 174° (S) 2,667 5.8 -9.8°
Enters shadow 19:57:14 - 174° (S) 3,260 6.3 -10.0°
